• In Moldova, Republic
  • List of Countries
  • For 7 days
  • Water Temperature
  • Satellite Maps
  • Weather Map
  • Weather Widgets
  • user-avatar
    Login

    Hourly Weather Wlora

    Today, 20 September, Wednesday

    Time Temperature Precipitation Wind Pressure Humidity
    00:00 +21°C° 0 mm 4 mps 757 mmHg 79%
    01:00 +21°C° 0 mm 4 mps 757 mmHg 80%
    02:00 +21°C° 0 mm 4 mps 757 mmHg 83%
    03:00 +20°C° 0 mm 4 mps 757 mmHg 85%
    04:00 +20°C° 0 mm 4 mps 757 mmHg 88%
    05:00 +21°C° 0.1 mm 4 mps 757 mmHg 83%
    06:00 +21°C° 0.1 mm 3 mps 757 mmHg 79%
    07:00 +23°C° 0 mm 2 mps 757 mmHg 73%
    08:00 +24°C° 0 mm 2 mps 757 mmHg 67%
    09:00 +25°C° 0 mm 2 mps 758 mmHg 60%
    10:00 +25°C° 0 mm 2 mps 758 mmHg 54%
    11:00 +26°C° 0 mm 3 mps 758 mmHg 49%
    12:00 +26°C° 0 mm 3 mps 758 mmHg 44%
    13:00 +27°C° 0 mm 4 mps 758 mmHg 39%
    14:00 +26°C° 0.1 mm 4 mps 758 mmHg 41%
    15:00 +26°C° 0.1 mm 5 mps 758 mmHg 42%
    16:00 +25°C° 0.1 mm 5 mps 758 mmHg 44%
    17:00 +23°C° 0.3 mm 5 mps 758 mmHg 52%
    18:00 +21°C° 0.3 mm 5 mps 759 mmHg 61%
    19:00 +19°C° 0.3 mm 4 mps 759 mmHg 69%
    20:00 +19°C° 0.3 mm 4 mps 759 mmHg 70%
    21:00 +19°C° 0.3 mm 4 mps 759 mmHg 70%
    22:00 +19°C° 0.3 mm 5 mps 760 mmHg 71%
    23:00 +17°C° 0.4 mm 5 mps 760 mmHg 73%

    Tomorrow, 21 September, Thursday

    Time Temperature Precipitation Wind Pressure Humidity
    00:00 +17°C° 0.4 mm 5 mps 760 mmHg 75%
    01:00 +16°C° 0.4 mm 6 mps 760 mmHg 78%
    02:00 +16°C° 0.4 mm 6 mps 760 mmHg 79%
    03:00 +16°C° 0.4 mm 6 mps 760 mmHg 80%
    04:00 +16°C° 0.4 mm 6 mps 760 mmHg 82%
    05:00 +16°C° 0.4 mm 6 mps 760 mmHg 79%
    06:00 +17°C° 0.4 mm 6 mps 760 mmHg 76%
    07:00 +17°C° 0.4 mm 6 mps 760 mmHg 74%
    08:00 +18°C° 0.2 mm 7 mps 761 mmHg 70%
    09:00 +20°C° 0.2 mm 7 mps 761 mmHg 66%
    10:00 +21°C° 0.2 mm 7 mps 761 mmHg 62%
    11:00 +21°C° 0.2 mm 7 mps 761 mmHg 61%
    12:00 +21°C° 0.2 mm 8 mps 761 mmHg 59%
    13:00 +22°C° 0.2 mm 8 mps 761 mmHg 58%
    14:00 +21°C° 0.2 mm 8 mps 761 mmHg 59%
    15:00 +21°C° 0.2 mm 8 mps 761 mmHg 60%
    16:00 +21°C° 0.2 mm 9 mps 761 mmHg 61%
    17:00 +20°C° 0.1 mm 8 mps 762 mmHg 66%
    18:00 +18°C° 0.1 mm 8 mps 762 mmHg 72%
    19:00 +17°C° 0.1 mm 7 mps 762 mmHg 77%
    20:00 +16°C° 0.1 mm 7 mps 763 mmHg 78%
    21:00 +16°C° 0.1 mm 6 mps 763 mmHg 79%
    22:00 +16°C° 0.1 mm 6 mps 763 mmHg 79%
    23:00 +15°C° 0 mm 6 mps 763 mmHg 79%

    Day after tomorrow, 22 September, Friday

    Time Temperature Precipitation Wind Pressure Humidity
    00:00 +15°C° 0 mm 6 mps 763 mmHg 78%
    01:00 +15°C° 0 mm 6 mps 764 mmHg 77%
    02:00 +15°C° 0 mm 6 mps 764 mmHg 77%
    03:00 +15°C° 0 mm 6 mps 764 mmHg 76%
    04:00 +15°C° 0 mm 6 mps 764 mmHg 76%
    05:00 +15°C° 0 mm 6 mps 764 mmHg 72%
    06:00 +16°C° 0 mm 5 mps 764 mmHg 69%
    07:00 +17°C° 0 mm 5 mps 764 mmHg 66%
    08:00 +19°C° 0 mm 5 mps 764 mmHg 58%
    09:00 +21°C° 0 mm 5 mps 765 mmHg 50%
    10:00 +22°C° 0 mm 5 mps 765 mmHg 42%
    11:00 +23°C° 0 mm 5 mps 765 mmHg 40%
    12:00 +23°C° 0 mm 6 mps 765 mmHg 39%
    13:00 +24°C° 0 mm 6 mps 765 mmHg 38%
    14:00 +24°C° 0 mm 6 mps 765 mmHg 40%
    15:00 +23°C° 0 mm 6 mps 765 mmHg 42%
    16:00 +23°C° 0 mm 6 mps 765 mmHg 44%
    17:00 +21°C° 0 mm 6 mps 765 mmHg 48%
    18:00 +20°C° 0 mm 5 mps 765 mmHg 52%
    19:00 +17°C° 0 mm 5 mps 765 mmHg 57%
    20:00 +17°C° 0 mm 5 mps 766 mmHg 57%
    21:00 +17°C° 0 mm 4 mps 766 mmHg 57%
    22:00 +17°C° 0 mm 4 mps 766 mmHg 57%
    23:00 +17°C° 0 mm 4 mps 766 mmHg 56%

    23 September, Saturday

    Time Temperature Precipitation Wind Pressure Humidity
    00:00 +16°C° 0 mm 3 mps 766 mmHg 55%
    01:00 +16°C° 0 mm 3 mps 766 mmHg 53%
    02:00 +16°C° 0 mm 3 mps 766 mmHg 53%
    03:00 +15°C° 0 mm 4 mps 766 mmHg 52%
    04:00 +15°C° 0 mm 4 mps 765 mmHg 52%
    05:00 +17°C° 0 mm 4 mps 765 mmHg 50%
    06:00 +18°C° 0 mm 4 mps 765 mmHg 49%
    07:00 +18°C° 0 mm 4 mps 766 mmHg 48%
    08:00 +20°C° 0 mm 4 mps 766 mmHg 43%
    09:00 +24°C° 0 mm 3 mps 766 mmHg 38%
    10:00 +26°C° 0 mm 3 mps 766 mmHg 33%
    11:00 +26°C° 0 mm 4 mps 765 mmHg 33%
    12:00 +27°C° 0 mm 4 mps 765 mmHg 33%
    13:00 +27°C° 0 mm 4 mps 765 mmHg 33%
    14:00 +27°C° 0 mm 5 mps 764 mmHg 36%
    15:00 +26°C° 0 mm 5 mps 764 mmHg 39%
    16:00 +26°C° 0 mm 5 mps 764 mmHg 42%
    17:00 +23°C° 0 mm 5 mps 764 mmHg 47%
    18:00 +22°C° 0 mm 4 mps 764 mmHg 53%
    19:00 +20°C° 0 mm 4 mps 764 mmHg 58%
    20:00 +20°C° 0 mm 4 mps 765 mmHg 58%
    21:00 +19°C° 0 mm 3 mps 765 mmHg 58%
    22:00 +19°C° 0 mm 3 mps 765 mmHg 59%
    23:00 +18°C° 0 mm 3 mps 764 mmHg 58%

    24 September, Sunday

    Time Temperature Precipitation Wind Pressure Humidity
    00:00 +18°C° 0 mm 3 mps 764 mmHg 57%
    01:00 +18°C° 0 mm 3 mps 764 mmHg 56%
    02:00 +18°C° 0 mm 3 mps 764 mmHg 55%
    03:00 +18°C° 0 mm 3 mps 764 mmHg 55%
    04:00 +17°C° 0 mm 3 mps 763 mmHg 54%
    05:00 +18°C° 0 mm 3 mps 763 mmHg 52%
    06:00 +19°C° 0 mm 3 mps 763 mmHg 50%
    07:00 +20°C° 0 mm 3 mps 763 mmHg 49%
    08:00 +22°C° 0 mm 3 mps 763 mmHg 43%
    09:00 +25°C° 0 mm 3 mps 764 mmHg 38%
    10:00 +26°C° 0 mm 3 mps 764 mmHg 33%
    11:00 +27°C° 0 mm 3 mps 763 mmHg 33%
    12:00 +27°C° 0 mm 3 mps 763 mmHg 33%
    13:00 +28°C° 0 mm 3 mps 762 mmHg 33%
    14:00 +27°C° 0 mm 4 mps 762 mmHg 36%
    15:00 +27°C° 0 mm 4 mps 762 mmHg 40%
    16:00 +26°C° 0 mm 4 mps 762 mmHg 43%
    17:00 +25°C° 0 mm 4 mps 762 mmHg 49%
    18:00 +22°C° 0 mm 4 mps 762 mmHg 56%
    19:00 +21°C° 0 mm 3 mps 762 mmHg 62%
    20:00 +21°C° 0 mm 3 mps 762 mmHg 62%
    21:00 +20°C° 0 mm 3 mps 762 mmHg 62%
    22:00 +20°C° 0 mm 3 mps 763 mmHg 62%
    23:00 +20°C° 0 mm 3 mps 762 mmHg 62%

    25 September, Monday

    Time Temperature Precipitation Wind Pressure Humidity
    00:00 +20°C° 0 mm 2 mps 762 mmHg 61%
    01:00 +20°C° 0 mm 2 mps 762 mmHg 61%
    02:00 +20°C° 0.1 mm 2 mps 762 mmHg 61%
    03:00 +19°C° 0.1 mm 2 mps 762 mmHg 61%
    04:00 +19°C° 0.1 mm 2 mps 762 mmHg 62%
    05:00 +20°C° 0.1 mm 2 mps 762 mmHg 59%
    06:00 +20°C° 0.1 mm 2 mps 762 mmHg 57%
    07:00 +21°C° 0.1 mm 2 mps 762 mmHg 54%
    08:00 +24°C° 0 mm 2 mps 762 mmHg 49%
    09:00 +25°C° 0 mm 2 mps 762 mmHg 44%
    10:00 +27°C° 0 mm 1 mps 762 mmHg 39%
    11:00 +27°C° 0 mm 2 mps 762 mmHg 38%
    12:00 +28°C° 0 mm 2 mps 761 mmHg 38%
    13:00 +28°C° 0 mm 3 mps 761 mmHg 38%
    14:00 +27°C° 0 mm 3 mps 761 mmHg 40%
    15:00 +27°C° 0 mm 3 mps 761 mmHg 43%
    16:00 +26°C° 0 mm 3 mps 761 mmHg 46%
    17:00 +25°C° 0 mm 3 mps 761 mmHg 52%
    18:00 +24°C° 0 mm 3 mps 761 mmHg 58%
    19:00 +21°C° 0 mm 2 mps 761 mmHg 64%
    20:00 +21°C° 0 mm 2 mps 762 mmHg 65%
    21:00 +20°C° 0 mm 2 mps 762 mmHg 66%
    22:00 +20°C° 0 mm 2 mps 762 mmHg 66%
    23:00 +20°C° 0 mm 2 mps 762 mmHg 67%
    Show more